Погода в Зуе

Россия / Республика Крым     45°03′15″N   34°18′54″E
темп.,
°C
ветер,
м/с
пор.,
м/с
влажн.,
%
обл.,
%
осадки,
мм/ч
давл.,
гПа
погр.,
м
17 октября, вс
вс1700:00+13ююз22766 0.4 101421
03:00+12ссв0077100 0.4 101410
06:00+12в1181100 0.0 101410
09:00+14вюв1169100 0.0 1014102
12:00+18сз1352100 0.1 10141148
15:00+17зсз226074 0.3 1014591
18:00+15с2474100 1.1 1015224
21:00+13всв247691 1.2 1016208
18 октября, пн
пн1800:00+12св357585 0.0 1016322
03:00+11св246892 0.0 1017221
06:00+10с247671 0.0 1018261
09:00+11ссв127343 0.0 1019286
12:00+14с335466 0.0 1019843
15:00+14сз335699 0.0 10181172
18:00+13сз3459100 0.0 1019518
21:00+10зсз256329 0.0 1021265
19 октября, вт
вт1900:00+8юз237220 0.0 102252
03:00+7юз2373100 0.0 102143
06:00+7ююз3566100 0.0 1021119
09:00+10юз586212 0.0 1021741
12:00+13з8125498 0.3 10201722
15:00+10зсз91570100 0.9 10191601
18:00+6сз7118299 0.0 1022976
21:00+6ссз5985100 0.1 1024966
20 октября, ср
ср2000:00+7ссз477636 0.2 1026855
03:00+3з22814 0.3 102837
06:00+2юз22795 0.0 103039
09:00+5з236421 0.0 1031332
12:00+8сз3349100 0.0 10301121
15:00+9зсз22424 0.0 10291194
18:00+7с01482 0.0 103010
21:00+5ююв11585 0.0 102911
21 октября, чт
чт2100:00+5ю22780 0.0 102929
03:00+4ююв22860 0.0 102828
06:00+4юв22875 0.0 102723
09:00+7ююв34663 0.0 1026213
12:00+13ююв23470 0.0 1024703
15:00+14ююв33445 0.0 1022716
18:00+9ююв35715 0.0 1022107
21:00+7ююв35825 0.0 102196